Desert Center, CA

6:39 AM PST on February 23, 2017 (GMT -0800)
Blythe

Weather History for KBLH - January, 2013

Change the Weather History Date:

Tuesday, January 1, 2013

  Actual Average Record
Temperature  
Mean Temperature 44 °F -  
Max Temperature 55 °F 65 °F 82 °F (1981)
Min Temperature 33 °F 41 °F 24 °F (1976)
Degree Days  
Heating Degree Days 21    
Moisture  
Dew Point 18 °F    
Average Humidity 37    
Maximum Humidity 61    
Minimum Humidity 22    
Precipitation  
Precipitation 0.00 in - - ()
Sea Level Pressure  
Sea Level Pressure 30.24 in    
Wind  
Wind Speed 4 mph (NNE)    
Max Wind Speed 13 mph    
Max Gust Speed -    
Visibility 10 miles    
Events      
Averages and records for this station are not official NWS values.
T = Trace of Precipitation, MM = Missing Value Source: NWS Daily Summary

Daily Weather History Graph

Daily Weather History Graph

Search for Another Location

Airport or City:

Trip Planner

Search our weather history database for the weather conditions in past years. The results will help you decide how hot, cold, wet, or windy it might be!

Date:

Astronomy

Jan. 01, 2013 Rise Set
Actual Time 6:43 AM PST 4:42 PM PST
Civil Twilight 6:16 AM PST 5:09 PM PST
Nautical Twilight 5:44 AM PST 5:40 PM PST
Astronomical Twilight 5:14 AM PST 6:10 PM PST
Moon 9:03 PM PST (1/1) 9:10 AM PST (1/1)
Length of Visible Light 10h 53m
Length of Day
9h 58m
Waning Gibbous, 82% of the Moon is Illuminated
Jan 1
Waning Gibbous
Jan 4
Last Quarter
Jan 11
New
Jan 18
First Quarter
Jan 26
Full

Hourly Weather History & Observations

Time (PST) Temp. Windchill Dew Point Humidity Pressure Visibility Wind Dir Wind Speed Gust Speed Precip Events Conditions
12:52 AM 37.0 °F 32.4 °F 18.0 °F 46% 30.24 in 10.0 mi NW 5.8 mph - N/A   Clear
1:52 AM 37.0 °F - 19.0 °F 48% 30.25 in 10.0 mi Calm Calm - N/A   Clear
2:52 AM 39.0 °F - 17.1 °F 41% 30.26 in 10.0 mi Calm Calm - N/A   Clear
3:52 AM 37.9 °F 35.5 °F 18.0 °F 45% 30.26 in 10.0 mi NE 3.5 mph - N/A   Clear
4:52 AM 33.1 °F 28.7 °F 21.0 °F 61% 30.27 in 10.0 mi NW 4.6 mph - N/A   Clear
5:52 AM 35.1 °F - 21.0 °F 57% 30.27 in 10.0 mi Calm Calm - N/A   Clear
7:52 AM 37.0 °F - 21.9 °F 54% 30.29 in 10.0 mi Calm Calm - N/A   Clear
8:52 AM 45.0 °F 42.6 °F 21.9 °F 40% 30.30 in 10.0 mi NE 4.6 mph - N/A   Clear
9:52 AM 46.9 °F - 23.0 °F 39% 30.30 in 10.0 mi East 4.6 mph - N/A   Clear
10:52 AM 51.1 °F - 21.9 °F 32% 30.29 in 10.0 mi Calm Calm - N/A   Clear
11:52 AM 53.1 °F - 19.9 °F 27% 30.25 in 10.0 mi Calm Calm - N/A   Clear
12:52 PM 53.1 °F - 19.9 °F 27% 30.22 in 10.0 mi East 4.6 mph - N/A   Clear
1:52 PM 54.0 °F - 19.0 °F 25% 30.21 in 10.0 mi ENE 3.5 mph - N/A   Clear
2:52 PM 55.0 °F - 16.0 °F 22% 30.19 in 10.0 mi North 12.7 mph - N/A   Clear
3:52 PM 55.0 °F - 16.0 °F 22% 30.19 in 10.0 mi NNE 8.1 mph - N/A   Clear
4:52 PM 51.1 °F - 19.0 °F 28% 30.19 in 10.0 mi North 3.5 mph - N/A   Clear
5:52 PM 48.0 °F - 17.1 °F 29% 30.19 in 10.0 mi North 4.6 mph - N/A   Clear
6:52 PM 46.9 °F - 15.1 °F 28% 30.21 in 10.0 mi NNW 9.2 mph - N/A   Clear
7:52 PM 45.0 °F 39.7 °F 15.1 °F 30% 30.22 in 10.0 mi NNW 10.4 mph - N/A   Clear
8:52 PM 43.0 °F 38.2 °F 16.0 °F 34% 30.22 in 10.0 mi NNW 8.1 mph - N/A   Clear
9:52 PM 42.1 °F 37.1 °F 16.0 °F 35% 30.23 in 10.0 mi North 8.1 mph - N/A   Clear
10:52 PM 41.0 °F 38.0 °F 16.0 °F 36% 30.23 in 10.0 mi NE 4.6 mph - N/A   Clear
11:52 PM 39.9 °F - 17.1 °F 40% 30.21 in 10.0 mi Calm Calm - N/A   Clear